Weather History for Monte Cimone, Italy

Change the Weather History Date:

Saturday, August 3, 2013

  Actual Average Record
Temperature  
Mean Temperature 50 °F -  
Max Temperature 69 °F 54 °F 69 °F (2013)
Min Temperature 32 °F 45 °F 32 °F (2013)
Degree Days  
Heating Degree Days 14    
Moisture  
Dew Point 40 °F    
Average Humidity 45    
Maximum Humidity 63    
Minimum Humidity 20    
Precipitation  
Precipitation 0.00 in 0.10 in - ()
Sea Level Pressure  
Sea Level Pressure 30.46 in    
Wind  
Wind Speed 2 mph ()    
Max Wind Speed 17 mph    
Max Gust Speed -    
Averages and records for this station are not official NWS values.
T = Trace of Precipitation, MM = Missing Value Source: Averaged Metar Reports

Daily Weather History Graph

Daily Weather History Graph

Search for Another Location

Airport:

Trip Planner

Search our weather history database for the weather conditions in past years. The results will help you decide how hot, cold, wet, or windy it might be!

Date:

Astronomy

Aug. 03, 2013 Rise Set
Actual Time 6:07 AM CEST 8:39 PM CEST
Civil Twilight 5:34 AM CEST 9:11 PM CEST
Nautical Twilight 4:52 AM CEST 9:52 PM CEST
Astronomical Twilight 4:06 AM CEST 10:39 PM CEST
Moon 3:00 AM CEST (8/3) 6:10 PM CEST (8/3)
Length of Visible Light 15h 37m
Length of Day
14h 32m
Waning Crescent, 11% of the Moon is Illuminated
Aug 3
Waning Crescent
Aug 6
New
Aug 14
First Quarter
Aug 21
Full
Aug 28
Last Quarter

Hourly Weather History & Observations

Time (CEST) Temp. Dew Point Humidity Pressure Visibility Wind Dir Wind Speed Gust Speed Precip Events Conditions
12:55 AM 59.0 °F 37.4 °F 45% 30.48 in - North 5.8 mph - N/A   Clear
1:55 AM 59.0 °F 37.4 °F 45% 30.45 in - North 5.8 mph - N/A   Clear
2:00 AM 59 °F 37 °F 32%  in 31 mi North 5.8 mph - -  
2:55 AM 59.0 °F 39.2 °F 48% 30.45 in - Calm Calm - N/A   Clear
3:55 AM 59.0 °F 28.4 °F 31% 30.45 in - Calm Calm - N/A   Clear
4:55 AM 59.0 °F 26.6 °F 29% 30.42 in - Calm Calm - N/A   Clear
5:55 AM 59.0 °F 24.8 °F 27% 30.42 in - Calm Calm - N/A   Clear
6:55 AM 59.0 °F 24.8 °F 27% 30.42 in - Calm Calm - N/A   Clear
7:55 AM 60.8 °F 30.2 °F 31% 30.42 in - Calm Calm - N/A   Clear
8:00 AM 60 °F 29 °F 20%  in 31 mi Calm Calm - -  
8:55 AM 32.0 °F 5.0 °F 32% 30.42 in - Calm Calm - N/A   Clear
9:55 AM 62.6 °F 35.6 °F 37% 30.45 in - Calm Calm - N/A   Clear
10:55 AM 62.6 °F 44.6 °F 52% 30.45 in - Calm Calm - N/A   Clear
11:55 AM 64.4 °F 44.6 °F 49% 30.48 in - Calm Calm - N/A   Clear
12:55 PM 66.2 °F 50.0 °F 56% 30.48 in - Calm Calm - N/A   Clear
1:55 PM 66.2 °F 50.0 °F 56% 30.48 in - Calm Calm - N/A   Clear
2:00 PM 66 °F 49 °F 44%  in 31 mi Calm Calm - -  
2:55 PM 68.0 °F 46.4 °F 46% 30.48 in - Calm Calm - N/A   Clear
3:55 PM 69.8 °F 48.2 °F 46% 30.48 in - WSW 8.1 mph - N/A   Clear
4:55 PM 69.8 °F 48.2 °F 46% 30.48 in - Calm Calm - N/A   Clear
5:55 PM 68.0 °F 51.8 °F 56% 30.48 in - Calm Calm - N/A   Clear
6:55 PM 66.2 °F 48.2 °F 52% 30.48 in - Calm Calm - N/A   Clear
7:55 PM 64.4 °F 50.0 °F 59% 30.48 in - Calm Calm - N/A   Clear
8:00 PM 64 °F 50 °F 51%  in 31 mi Calm Calm - -  
8:55 PM 62.6 °F 50.0 °F 63% 30.48 in - Calm Calm - N/A   Clear
9:55 PM 60.8 °F 48.2 °F 63% 30.48 in - South 5.8 mph - N/A   Clear
10:55 PM 60.8 °F 48.2 °F 63% 30.48 in - South 5.8 mph - N/A   Clear
11:55 PM 60.8 °F 41.0 °F 48% 30.48 in - WSW 17.3 mph - N/A   Clear